Melilla, Spain

6:47 PM CEST on August 20, 2017 (GMT +0200)
Melilla

Weather History for GEML - October, 2012

Change the Weather History Date:

Tuesday, October 30, 2012

  Actual Average Record
Temperature  
Mean Temperature 63 °F -  
Max Temperature 67 °F 69 °F 80 °F (2005)
Min Temperature 59 °F 57 °F 55 °F (2008)
Degree Days  
Heating Degree Days 2    
Growing Degree Days 13 (Base 50)    
Moisture  
Dew Point 59 °F    
Average Humidity 83    
Maximum Humidity 94    
Minimum Humidity 66    
Precipitation  
Precipitation 0.04 in 0.05 in - ()
Sea Level Pressure  
Sea Level Pressure 29.61 in    
Wind  
Wind Speed 2 mph ()    
Max Wind Speed 10 mph    
Max Gust Speed -    
Visibility 6.9 miles    
Events Rain    
Averages and records for this station are not official NWS values.
T = Trace of Precipitation, MM = Missing Value Source: Averaged Metar Reports

Daily Weather History Graph

Daily Weather History Graph

Search for Another Location

Airport or City:

Trip Planner

Search our weather history database for the weather conditions in past years. The results will help you decide how hot, cold, wet, or windy it might be!

Date:

Astronomy

Oct. 30, 2012 Rise Set
Actual Time 7:31 AM CET 6:18 PM CET
Civil Twilight 7:05 AM CET 6:44 PM CET
Nautical Twilight 6:35 AM CET 7:14 PM CET
Astronomical Twilight 6:05 AM CET 7:44 PM CET
Moon 6:41 PM CET (10/30) 8:02 AM CET (10/30)
Length of Visible Light 11h 39m
Length of Day
10h 47m
Full, 100% of the Moon is Illuminated
Oct 30
Full
Nov 7
Last Quarter
Nov 13
New
Nov 20
First Quarter
Nov 28
Full

Hourly Weather History & Observations

Time (CET) Temp. Dew Point Humidity Pressure Visibility Wind Dir Wind Speed Gust Speed Precip Events Conditions
6:00 AM 59.0 °F 55.4 °F 88% 29.71 in 6.2 mi Calm Calm - N/A   Partly Cloudy
6:30 AM 59.0 °F 55.4 °F 88% 29.68 in 6.2 mi Calm Calm - N/A   Partly Cloudy
7:00 AM 60 °F 56 °F 82% 29.69 in 19 mi Calm Calm - -   Scattered Clouds
7:00 AM 60.8 °F 57.2 °F 88% 29.68 in 6.2 mi Calm Calm - N/A   Partly Cloudy
7:30 AM 60.8 °F 57.2 °F 88% 29.68 in 6.2 mi ESE 3.5 mph - N/A   Partly Cloudy
8:00 AM 62.6 °F 57.2 °F 82% 29.65 in 6.2 mi East 4.6 mph - N/A   Partly Cloudy
8:30 AM 62.6 °F 57.2 °F 82% 29.68 in 6.2 mi Variable 2.3 mph - N/A   Partly Cloudy
9:00 AM 64.4 °F 57.2 °F 77% 29.68 in 6.2 mi East 3.5 mph - N/A   Partly Cloudy
9:30 AM 64.4 °F 57.2 °F 77% 29.68 in 6.2 mi ESE 8.1 mph - N/A   Partly Cloudy
10:00 AM 64.4 °F 57.2 °F 77% 29.68 in 6.2 mi SE 10.4 mph - N/A   Scattered Clouds
10:30 AM 64.4 °F 57.2 °F 77% 29.68 in 6.2 mi ESE 8.1 mph - N/A   Scattered Clouds
11:00 AM 64.4 °F 59.0 °F 83% 29.65 in 6.2 mi SE 3.5 mph - N/A   Mostly Cloudy
11:30 AM 66.2 °F 59.0 °F 78% 29.65 in 6.2 mi SE 5.8 mph - N/A   Scattered Clouds
12:00 PM 66.2 °F 60.8 °F 83% 29.65 in 6.2 mi ESE 4.6 mph - N/A   Partly Cloudy
12:30 PM 68.0 °F 60.8 °F 78% 29.62 in 6.2 mi ESE 4.6 mph - N/A   Partly Cloudy
1:00 PM 67 °F 58 °F 66% 29.63 in 25 mi SE 3.5 mph - -   Overcast
1:00 PM 68.0 °F 59.0 °F 73% 29.62 in 6.2 mi Variable 2.3 mph - N/A   Partly Cloudy
1:30 PM 66.2 °F 60.8 °F 83% 29.62 in 6.2 mi Variable 2.3 mph - N/A   Partly Cloudy
2:00 PM 66.2 °F 59.0 °F 78% 29.59 in - Calm Calm - N/A   Clear
2:30 PM 68.0 °F 59.0 °F 73% 29.56 in - Variable 2.3 mph - N/A   Clear
3:00 PM 66.2 °F 59.0 °F 78% 29.56 in 6.2 mi ENE 3.5 mph - N/A   Partly Cloudy
3:30 PM 66.2 °F 59.0 °F 78% 29.56 in 6.2 mi Calm Calm - N/A   Partly Cloudy
4:00 PM 68.0 °F 59.0 °F 73% 29.53 in 6.2 mi Calm Calm - N/A   Partly Cloudy
4:30 PM 66.2 °F 60.8 °F 83% 29.53 in 6.2 mi NE 3.5 mph - N/A Rain Light Rain
5:00 PM 66.2 °F 62.6 °F 88% 29.53 in 6.2 mi Variable 2.3 mph - N/A Rain Rain
5:30 PM 66.2 °F 62.6 °F 88% 29.50 in 6.2 mi Variable 2.3 mph - N/A Rain Light Rain
6:00 PM 64.4 °F 62.6 °F 94% 29.50 in 6.2 mi ESE 4.6 mph - N/A Rain Light Rain
6:30 PM 64.4 °F 62.6 °F 94% 29.50 in 6.2 mi ESE 3.5 mph - N/A Rain Rain
7:00 PM 64 °F 63 °F 94% 29.50 in 12 mi East 3.5 mph - - Rain Rain
7:00 PM 64.4 °F 62.6 °F 94% 29.50 in 6.2 mi Variable 2.3 mph - N/A Rain Rain
7:30 PM 64.4 °F 62.6 °F 94% 29.47 in 6.2 mi East 2.3 mph - N/A Rain Rain